Hourly Data Report for September 09, 2019

SAINT JOHN A
NEW BRUNSWICK
Current Station Operator: NAVCAN

45°18'58.000" N
65°53'24.000" W
108.80 m
8104901
71609
YSJ

Download Data

Hourly Data (September 2019)
Hourly Data Report for September 9, 2019
TIME
LST
Temp Definition
°C
Dew Point Definition
°C
Rel Hum Definition
%
Precip. Amount Definition
mm

Wind Dir Definition
10's deg

Wind Spd Definition
km/h
Visibility Definition
km
Stn Press Definition
kPa
Hmdx Definition


Wind Chill Definition


Weather Definition


00:00 4.8 4.8 100   36 2 24.1 100.61     LegendNANA
01:00 3.5 3.5 100   4 4 24.1 100.67     LegendNANA
02:00 3.9 3.9 100   36 1 24.1 100.68     Clear
03:00 2.7 2.7 100   3 5 24.1 100.73     LegendNANA
04:00 3.2 3.2 100   2 4 24.1 100.76     LegendNANA
05:00 2.9 2.9 100   36 3 24.1 100.82     Clear
06:00 3.3 3.3 100   5 4 24.1 100.88     LegendNANA
07:00 7.9 7.9 100   1 5 24.1 100.93     LegendNANA
08:00 12.6 10.4 87   36 10 24.1 101.01     Clear
09:00 13.9 9.2 73   31 11 24.1 101.09     LegendNANA
10:00 15.9 9.1 64   32 9 24.1 101.12     LegendNANA
11:00 17.2 8.6 57   25 10 24.1 101.14     Mainly Clear
12:00 18.6 8.8 52   31 11 24.1 101.11     LegendNANA
13:00 19.1 9.4 53   23 14 24.1 101.09     LegendNANA
14:00 19.1 10.5 57   21 16 24.1 101.07     Mainly Clear
15:00 17.2 10.1 63   22 15 24.1 101.08     LegendNANA
16:00 17.5 9.3 58   22 16 24.1 101.06     LegendNANA
17:00 16.5 10.0 65   22 15 24.1 101.08     Mainly Clear
18:00 14.8 10.6 76   21 13 24.1 101.12     LegendNANA
19:00 12.7 10.7 87   21 14 24.1 101.18     LegendNANA
20:00 11.2 10.3 94   21 11 24.1 101.23     Mainly Clear
21:00 10.4 9.8 96   22 7 24.1 101.26     LegendNANA
22:00 10.5 10.2 98   36 2 24.1 101.29     LegendNANA
23:00 7.2 7.2 100   5 5 24.1 101.31     Mostly Cloudy

Notes on Data Quality.

Legend

  • E = Estimated
  • M = Missing
  • NA = Not Available*
  • [empty] = Indicates an unobserved value
Date modified: